[[{"header":{"parameterUnit":"m.s-1","parameterCategory":1,"la1":30.2991,"la2":30.254,"lo1":-89.0895,"lo2":-89.0444,"dy":0.0017,"dx":0.0017,"nx":28,"ny":28,"refTime":"2023-08-12T09:00:00:Z","depth":0,"parameterNumber":2,"parameterNumberName":"U-component_of_WINDS"},"data":[0,0,0,0,0,0,0,0,0,0,0,0,0,0,0,0,0,0,0,0,0,0,0,0,0,0,0,0,0,0,0,0,0,0,0,0,0,0,0,0,0,0,0,0,0,0,0,0,0,0,0,0,0,0,0,0,0,0,4.4299,4.43,0,4.4397,4.4398,4.4399,4.4311,4.4307,4.4303,4.43,4.44,4.4406,4.4412,0,0,0,0,0,0,0,0,0,0,0,0,0,4.4035,4.404,4.4299,4.43,4.4301,4.4397,4.4398,4.4399,4.4311,4.4307,4.4303,4.4298,4.4398,4.4406,4.4413,0,0,0,0,0,0,0,0,0,0,0,0,0,4.4143,4.4042,4.4299,4.4269,4.4267,4.4396,4.4398,4.44,4.4312,4.4307,4.4301,4.4296,4.4396,4.4405,4.4414,4.4577,0,0,4.4441,4.4445,0,0,0,0,0,0,0,0,4.4137,4.4153,4.4272,4.4271,4.4269,4.4336,4.4342,4.4459,4.4314,4.4295,4.43,4.4294,4.4383,4.4393,4.4423,4.4582,4.4586,4.4442,4.4448,4.4451,4.4454,0,0,0,0,0,0,0,4.413,4.4148,4.4338,4.4274,4.4272,4.425,4.426,4.4364,4.4368,4.4296,4.429,4.4303,4.4382,4.4415,4.4425,4.4588,4.4442,4.445,4.4455,4.4459,4.4885,4.4891,0,0,0,0,0,0,4.4125,4.4142,4.4334,4.4341,4.4189,4.426,4.427,4.432,4.4367,4.4369,4.4307,4.4298,4.4402,4.4415,4.4428,4.4622,4.4451,4.446,4.4465,4.4879,4.4886,4.4893,0,0,0,0,0,0,4.412,4.4143,4.4331,4.424,4.4262,4.427,4.4327,4.4325,4.4358,4.4375,4.4376,4.4341,4.4398,4.4415,4.4541,4.4624,4.4464,4.4472,4.4872,4.4881,4.489,4.5012,0,0,0,0,0,0,4.4113,4.4142,4.4204,4.4242,4.4267,4.4442,4.4332,4.4331,4.4374,4.4363,4.4406,4.4408,4.4395,4.4528,4.455,4.4634,4.4479,4.4865,4.4876,4.4887,4.5,4.5024,4.5044,0,0,0,0,0,4.4104,4.4235,4.4208,4.4232,4.4346,4.4447,4.4461,4.4444,4.4381,4.4444,4.4455,4.4407,4.4612,4.4541,4.4565,4.4654,4.4859,4.4873,4.4886,4.4991,4.5019,4.5043,0,0,0,0,0,0,4.4207,4.424,4.421,4.4357,4.44,4.4432,4.451,4.4475,4.4536,4.4523,4.4499,4.4509,4.4641,4.466,4.4581,4.4814,4.4725,4.4744,4.4797,4.4824,4.4846,4.4838,4.4487,0,0,0,0,0,4.4247,4.4327,4.4351,4.4479,4.4502,4.4503,4.4547,4.4529,4.4572,4.459,4.461,4.4654,4.4728,4.4777,4.4846,4.5003,4.5011,4.5075,4.5097,4.5115,4.5131,4.5214,4.5243,4.4936,4.4936,4.4936,0,0,4.4331,4.4358,4.441,4.4501,4.4532,4.4615,4.4519,4.4611,4.4672,4.4604,4.4723,4.474,4.4787,4.4928,4.4992,4.4948,4.5218,4.5132,4.5146,4.5152,4.5231,4.526,4.5286,4.4945,4.4944,4.4942,0,0,4.4525,4.4555,4.4664,4.4697,4.4745,4.4745,4.4771,4.4809,4.4817,4.4936,4.4887,4.4959,4.5087,4.5123,4.5157,4.5365,4.5323,4.5388,4.5502,4.5583,4.5607,4.5628,4.5702,4.5728,4.5405,4.5405,4.5405,0,4.4623,4.4746,4.4725,4.482,4.4861,4.4803,4.4914,4.4947,4.5015,4.5045,4.4995,4.5154,4.5182,4.533,4.5381,4.5411,4.544,4.5383,4.5606,4.5627,4.5646,4.5716,4.5743,4.5412,4.5412,4.5411,4.541,0,4.4863,4.495,4.5032,4.51,4.515,4.5252,4.5246,4.53,4.5278,4.5283,4.5405,4.5436,4.551,4.5544,4.5524,4.569,4.5661,4.5609,4.5519,4.5683,4.5748,4.5775,4.5423,4.5421,4.5418,4.5416,0,0,4.5126,4.518,4.521,4.524,4.5289,4.5355,4.5454,4.5527,4.5573,4.5622,4.5704,4.5814,4.5766,4.5806,4.5789,4.5861,4.6022,4.5799,4.58,4.5839,4.6205,4.6244,4.6275,4.5995,4.6,4.6004,4.6201,0,4.5321,4.5494,4.5478,4.5642,4.5721,4.5667,4.5754,4.5793,4.5801,4.5868,4.5876,4.5954,4.5885,4.5908,4.5977,4.5988,4.6095,4.5973,4.6071,4.6074,4.606,4.6309,4.635,4.6534,4.6226,4.6231,4.6234,0,4.5573,4.563,4.5803,4.5839,4.5871,4.5949,4.6014,4.608,4.6123,4.6123,4.6167,4.6138,4.6238,4.6147,4.6283,4.6201,4.624,4.6251,4.6258,4.6265,4.6163,4.6322,4.6593,4.662,4.6274,4.627,4.6268,0,4.5746,4.5866,4.5985,4.6012,4.6057,4.6113,4.6135,4.6172,4.6217,4.6273,4.6301,4.6369,4.6406,4.6459,4.6448,4.6383,4.6588,4.6496,4.659,4.659,4.6635,4.6632,4.6914,4.6662,4.6661,4.6661,4.666,0,4.5965,4.6072,4.6063,4.6136,4.6254,4.6234,4.6352,4.6366,4.64,4.6474,4.6432,4.6503,4.6485,4.6555,4.6548,4.6661,4.6679,4.6681,4.6678,4.6684,4.6684,4.6709,4.6695,4.6668,4.6667,4.6665,4.6664,0,4.6178,4.6176,4.6302,4.6334,4.6345,4.6431,4.6458,4.6526,4.653,4.6624,4.6645,4.6651,4.6731,4.6726,4.6817,4.6812,4.6952,4.6934,4.6937,4.6933,4.7027,4.7018,4.7334,4.7374,4.7097,4.71,4.7102,0,4.6318,4.6399,4.644,4.6487,4.6512,4.6588,4.6633,4.6616,4.6664,4.6719,4.6781,4.6857,4.6917,4.7047,4.7059,4.7128,4.7111,4.7217,4.7121,4.7125,4.7111,4.7106,4.7113,4.7236,4.7239,4.7241,4.7243,0,4.6566,4.6561,4.6627,4.6694,4.6748,4.68,4.6846,4.6887,4.6875,4.6931,4.7012,4.7059,4.7151,4.7227,4.7292,4.7313,4.7277,4.7274,4.7299,4.7306,4.7304,4.7305,4.6988,4.7266,4.7264,4.7262,4.7261,4.726,4.6746,4.6816,4.6855,4.693,4.6963,4.7008,4.7073,4.7085,4.7152,4.7226,4.7212,4.7303,4.7343,4.7427,4.7455,4.7525,4.7487,4.7524,4.7533,4.7542,4.7552,4.7294,4.7537,4.7537,4.7536,4.7535,4.7535,0,4.6992,4.7014,4.7083,4.715,4.7209,4.7169,4.7218,4.727,4.7351,4.7391,4.7451,4.7544,4.7617,4.7634,4.7704,4.7757,4.7742,4.7776,4.7772,4.7777,4.7583,4.7554,4.7787,4.7787,4.7787,4.7787,4.7787,4.7787,4.7126,4.7241,4.724,4.7371,4.7392,4.7481,4.7512,4.7553,4.7585,4.769,4.7751,4.7762,4.7793,4.7865,4.793,4.7933,4.796,4.8001,4.7998,4.7816,4.7791,4.7767,4.7739,4.8008,4.8008,4.8185,4.8187,4.8188]},{"header":{"parameterUnit":"m.s-1","parameterCategory":1,"la1":30.2991,"la2":30.254,"lo1":-89.0895,"lo2":-89.0444,"dy":0.0017,"dx":0.0017,"nx":28,"ny":28,"refTime":"2023-08-12T09:00:00:Z","depth":0,"parameterNumber":3,"parameterNumberName":"V-component_of_WINDS"},"data":[0,0,0,0,0,0,0,0,0,0,0,0,0,0,0,0,0,0,0,0,0,0,0,0,0,0,0,0,0,0,0,0,0,0,0,0,0,0,0,0,0,0,0,0,0,0,0,0,0,0,0,0,0,0,0,0,0,0,-0.2641,-0.2641,0,-0.2595,-0.2595,-0.2594,-0.2592,-0.2592,-0.2593,-0.2593,-0.2544,-0.2542,-0.254,0,0,0,0,0,0,0,0,0,0,0,0,0,-0.2724,-0.2723,-0.2641,-0.2641,-0.264,-0.2596,-0.2595,-0.2594,-0.2592,-0.2592,-0.2593,-0.2594,-0.2545,-0.2542,-0.254,0,0,0,0,0,0,0,0,0,0,0,0,0,-0.2684,-0.2722,-0.2641,-0.2633,-0.2632,-0.2596,-0.2595,-0.2594,-0.2592,-0.2592,-0.2593,-0.2594,-0.2545,-0.2543,-0.254,-0.2507,0,0,-0.2532,-0.253,0,0,0,0,0,0,0,0,-0.2687,-0.2681,-0.2635,-0.2634,-0.2633,-0.26,-0.2606,-0.2565,-0.2591,-0.2607,-0.2593,-0.2594,-0.2562,-0.2558,-0.2547,-0.2505,-0.2503,-0.2531,-0.253,-0.2529,-0.2528,0,0,0,0,0,0,0,-0.2689,-0.2683,-0.2623,-0.2634,-0.2633,-0.2632,-0.2627,-0.2598,-0.258,-0.2606,-0.2605,-0.26,-0.2561,-0.255,-0.2546,-0.2502,-0.2531,-0.2529,-0.2527,-0.2526,-0.2431,-0.243,0,0,0,0,0,0,-0.2694,-0.2686,-0.2624,-0.2622,-0.2662,-0.2629,-0.2624,-0.261,-0.2581,-0.2577,-0.2599,-0.26,-0.2554,-0.2549,-0.2544,-0.2504,-0.2529,-0.2526,-0.2525,-0.2432,-0.2431,-0.243,0,0,0,0,0,0,-0.2696,-0.2689,-0.2626,-0.2654,-0.2646,-0.2627,-0.2611,-0.2608,-0.2597,-0.2576,-0.2573,-0.2591,-0.2555,-0.2548,-0.2517,-0.2502,-0.2525,-0.2522,-0.2433,-0.2431,-0.243,-0.2424,0,0,0,0,0,0,-0.2698,-0.2689,-0.2677,-0.2653,-0.2644,-0.26,-0.261,-0.2607,-0.2593,-0.2593,-0.2568,-0.2564,-0.2555,-0.2521,-0.2514,-0.2499,-0.252,-0.2434,-0.2432,-0.2431,-0.2425,-0.2422,-0.242,0,0,0,0,0,-0.2701,-0.2676,-0.2676,-0.2669,-0.2628,-0.2599,-0.2594,-0.2584,-0.2592,-0.2579,-0.2566,-0.2565,-0.2506,-0.2518,-0.251,-0.2494,-0.2435,-0.2433,-0.2431,-0.2426,-0.2423,-0.242,0,0,0,0,0,0,-0.2697,-0.2673,-0.2673,-0.2639,-0.2622,-0.2599,-0.2582,-0.2581,-0.256,-0.2561,-0.2549,-0.2544,-0.2512,-0.25,-0.2514,-0.2461,-0.2471,-0.2467,-0.247,-0.2467,-0.2464,-0.2467,-0.2518,0,0,0,0,0,-0.2693,-0.2672,-0.2651,-0.2624,-0.2615,-0.26,-0.2587,-0.2582,-0.2562,-0.2554,-0.2538,-0.2519,-0.2496,-0.2481,-0.2458,-0.2424,-0.2418,-0.2409,-0.2406,-0.2404,-0.2401,-0.2382,-0.2378,-0.2423,-0.2423,-0.2423,0,0,-0.2683,-0.2667,-0.2654,-0.2623,-0.2608,-0.2586,-0.2594,-0.257,-0.2553,-0.255,-0.2519,-0.2508,-0.2485,-0.2452,-0.2436,-0.2441,-0.2387,-0.2402,-0.24,-0.2398,-0.2379,-0.2375,-0.2371,-0.2422,-0.2422,-0.2422,0,0,-0.2653,-0.2639,-0.2615,-0.2601,-0.2579,-0.2569,-0.2564,-0.2541,-0.2533,-0.2503,-0.2501,-0.248,-0.2441,-0.2425,-0.2412,-0.2378,-0.2376,-0.2371,-0.2357,-0.2338,-0.2335,-0.2331,-0.2319,-0.2314,-0.2368,-0.2368,-0.2368,0,-0.2643,-0.261,-0.2602,-0.2579,-0.2565,-0.2563,-0.2538,-0.2524,-0.2496,-0.2486,-0.2492,-0.2443,-0.2428,-0.2391,-0.2383,-0.2372,-0.2365,-0.2373,-0.2336,-0.2333,-0.2329,-0.2317,-0.2312,-0.2367,-0.2367,-0.2367,-0.2367,0,-0.2599,-0.2576,-0.2559,-0.2533,-0.2517,-0.2493,-0.2481,-0.2466,-0.2463,-0.2453,-0.2422,-0.2404,-0.2378,-0.2369,-0.2365,-0.2332,-0.2335,-0.2338,-0.2348,-0.2325,-0.2313,-0.2308,-0.2366,-0.2367,-0.2367,-0.2367,0,0,-0.2563,-0.2535,-0.2528,-0.2517,-0.2493,-0.2475,-0.2451,-0.2427,-0.2414,-0.2395,-0.2374,-0.2342,-0.2345,-0.233,-0.2324,-0.2308,-0.2282,-0.2314,-0.2313,-0.2308,-0.2244,-0.2241,-0.2236,-0.2282,-0.2281,-0.228,-0.2246,0,-0.2531,-0.2488,-0.2481,-0.2444,-0.2423,-0.2421,-0.24,-0.2383,-0.2374,-0.2354,-0.2343,-0.232,-0.2326,-0.2317,-0.2302,-0.2289,-0.2269,-0.2291,-0.2261,-0.226,-0.2266,-0.223,-0.2226,-0.2195,-0.2241,-0.2241,-0.224,0,-0.2486,-0.2467,-0.2428,-0.2408,-0.2399,-0.238,-0.2358,-0.2339,-0.232,-0.2314,-0.2298,-0.2295,-0.2269,-0.2281,-0.2246,-0.2261,-0.2248,-0.224,-0.2239,-0.2235,-0.2248,-0.2224,-0.2184,-0.2179,-0.2233,-0.2234,-0.2234,0,-0.2464,-0.2428,-0.24,-0.2391,-0.2367,-0.2354,-0.2343,-0.2325,-0.2311,-0.2291,-0.2282,-0.226,-0.2247,-0.2229,-0.222,-0.2229,-0.2185,-0.2196,-0.2178,-0.2179,-0.2168,-0.2168,-0.2125,-0.2162,-0.2162,-0.2162,-0.2162,0,-0.2427,-0.2403,-0.239,-0.2373,-0.2346,-0.2338,-0.2311,-0.2301,-0.2285,-0.2265,-0.2263,-0.2244,-0.2233,-0.2213,-0.2205,-0.2177,-0.2171,-0.2166,-0.2164,-0.2165,-0.2166,-0.2156,-0.2157,-0.2161,-0.2161,-0.2161,-0.2161,0,-0.2397,-0.2387,-0.2357,-0.2337,-0.2332,-0.2313,-0.2296,-0.2279,-0.227,-0.2245,-0.2239,-0.2224,-0.2201,-0.219,-0.216,-0.2155,-0.2123,-0.2123,-0.2129,-0.2128,-0.2111,-0.2113,-0.2059,-0.2051,-0.2094,-0.2094,-0.2093,0,-0.2374,-0.2355,-0.2334,-0.2321,-0.2311,-0.229,-0.2276,-0.2268,-0.2254,-0.2231,-0.2217,-0.2193,-0.2174,-0.2136,-0.2122,-0.21,-0.2099,-0.2082,-0.2095,-0.2097,-0.2098,-0.2098,-0.2096,-0.2079,-0.2078,-0.2078,-0.2078,0,-0.2333,-0.233,-0.231,-0.2289,-0.2273,-0.2256,-0.2239,-0.2229,-0.2218,-0.2202,-0.2178,-0.2163,-0.2134,-0.211,-0.2087,-0.2076,-0.2074,-0.2074,-0.2068,-0.2069,-0.2073,-0.207,-0.2121,-0.2075,-0.2075,-0.2075,-0.2075,-0.2075,-0.2305,-0.2289,-0.2272,-0.225,-0.2237,-0.2222,-0.2205,-0.2195,-0.2175,-0.2151,-0.2147,-0.2122,-0.2104,-0.2073,-0.2061,-0.204,-0.2044,-0.2037,-0.2035,-0.2033,-0.2031,-0.2078,-0.2036,-0.2036,-0.2036,-0.2036,-0.2036,0,-0.2264,-0.2253,-0.2234,-0.2211,-0.2194,-0.2196,-0.2178,-0.2163,-0.2141,-0.2125,-0.2107,-0.2079,-0.2057,-0.2042,-0.202,-0.2006,-0.2005,-0.2,-0.2001,-0.1998,-0.2029,-0.2036,-0.2001,-0.2002,-0.2002,-0.2002,-0.2002,-0.2002,-0.224,-0.2213,-0.2207,-0.2173,-0.2163,-0.2138,-0.2128,-0.2114,-0.2101,-0.2071,-0.2053,-0.2044,-0.2028,-0.2004,-0.1984,-0.198,-0.1971,-0.1966,-0.1963,-0.1992,-0.1996,-0.1999,-0.2005,-0.1965,-0.1965,-0.1933,-0.1933,-0.1932]}]]